Weather History for Lancaster, OH

Change the Weather History Date:

Thursday, October 13, 2011

  Actual Average Record
Temperature  
Mean Temperature 58 °F -  
Max Temperature 68 °F 66 °F 85 °F (1947)
Min Temperature 51 °F 42 °F 27 °F (1946)
Degree Days  
Heating Degree Days 6    
Growing Degree Days 8 (Base 50)    
Moisture  
Dew Point 56 °F    
Average Humidity 90    
Maximum Humidity 100    
Minimum Humidity 68    
Precipitation  
Precipitation 0.00 in - - ()
Sea Level Pressure  
Sea Level Pressure 29.61 in    
Wind  
Wind Speed 4 mph (SSE)    
Max Wind Speed 7 mph    
Max Gust Speed -    
Visibility 6 miles    
Events Fog    
Averages and records for this station are not official NWS values.
T = Trace of Precipitation, MM = Missing Value Source: NWS Daily Summary

Daily Weather History Graph

Daily Weather History Graph

Search for Another Location

Airport:

Trip Planner

Search our weather history database for the weather conditions in past years. The results will help you decide how hot, cold, wet, or windy it might be!

Date:

Astronomy

Oct. 13, 2011 Rise Set
Actual Time 7:38 AM EDT 6:54 PM EDT
Civil Twilight 7:11 AM EDT 7:21 PM EDT
Nautical Twilight 6:40 AM EDT 7:52 PM EDT
Astronomical Twilight 6:08 AM EDT 8:24 PM EDT
Moon 7:30 PM EDT (10/13) 9:08 AM EDT (10/13)
Length of Visible Light 12h 10m
Length of Day
11h 16m
Full, 98% of the Moon is Illuminated
Oct 13
Full
Oct 19
Last Quarter
Oct 26
New
Nov 2
First Quarter
Nov 10
Full

Hourly Weather History & Observations

Time (EDT) Temp. Dew Point Humidity Pressure Visibility Wind Dir Wind Speed Gust Speed Precip Events Conditions
12:53 AM 59.0 °F 57.0 °F 93% 29.77 in 7.0 mi SSE 3.5 mph - N/A   Overcast
2:53 AM 57.9 °F 57.0 °F 97% 29.74 in 6.0 mi Calm Calm - N/A   Overcast
3:53 AM 57.9 °F 55.9 °F 93% 29.71 in 7.0 mi SSE 3.5 mph - N/A   Overcast
4:53 AM 55.9 °F 55.0 °F 97% 29.70 in 7.0 mi SE 3.5 mph - N/A   Mostly Cloudy
5:16 AM 55.4 °F 53.6 °F 94% 29.70 in 2.0 mi Calm Calm - N/A   Clear
5:23 AM 53.6 °F 53.6 °F 100% 29.70 in 1.0 mi SE 3.5 mph - N/A   Mist
5:53 AM 51.1 °F 51.1 °F 100% 29.70 in 0.8 mi Calm Calm - N/A   Mist
6:16 AM 53.6 °F 53.6 °F 100% 29.71 in 1.2 mi SE 3.5 mph - N/A   Mostly Cloudy
6:21 AM 55.4 °F 53.6 °F 94% 29.70 in 0.8 mi SE 4.6 mph - N/A   Mist
6:53 AM 55.0 °F 54.0 °F 96% 29.70 in 0.5 mi SSE 3.5 mph - N/A Fog Fog
7:15 AM 55.4 °F 55.4 °F 100% 29.70 in 1.2 mi SSE 3.5 mph - N/A   Overcast
7:40 AM 55.4 °F 55.4 °F 100% 29.69 in 0.8 mi SE 4.6 mph - N/A   Overcast
7:53 AM 55.0 °F 55.0 °F 100% 29.69 in 0.2 mi SE 4.6 mph - N/A Fog Fog
8:53 AM 55.0 °F 55.0 °F 100% 29.69 in 0.8 mi ESE 4.6 mph - N/A   Overcast
9:04 AM 55.4 °F 55.4 °F 100% 29.69 in 1.2 mi SE 4.6 mph - N/A   Overcast
9:10 AM 55.4 °F 55.4 °F 100% 29.69 in 2.5 mi SE 4.6 mph - N/A   Overcast
9:18 AM 55.4 °F 55.4 °F 100% 29.69 in 4.0 mi SE 5.8 mph - N/A   Overcast
9:49 AM 57.2 °F 55.4 °F 94% 29.68 in 5.0 mi SE 4.6 mph - N/A   Overcast
10:53 AM 62.1 °F 55.9 °F 80% 29.66 in 10.0 mi ESE 4.6 mph - N/A   Mostly Cloudy
11:53 AM 64.0 °F 55.9 °F 75% 29.62 in 10.0 mi ESE 5.8 mph - N/A   Overcast
12:53 PM 64.9 °F 57.0 °F 75% 29.61 in 10.0 mi SE 6.9 mph - N/A   Mostly Cloudy
1:53 PM 66.9 °F 55.9 °F 68% 29.56 in 10.0 mi Variable 3.5 mph - N/A   Partly Cloudy
2:53 PM 66.9 °F 55.9 °F 68% 29.54 in 10.0 mi East 5.8 mph - N/A   Scattered Clouds
3:53 PM 64.9 °F 55.9 °F 73% 29.52 in 10.0 mi ESE 6.9 mph - N/A   Overcast
4:53 PM 64.9 °F 57.9 °F 78% 29.51 in 10.0 mi East 5.8 mph - 0.00 in   Overcast
5:53 PM 64.0 °F 59.0 °F 84% 29.50 in 10.0 mi East 3.5 mph - N/A   Overcast
6:00 PM 64.4 °F 59.0 °F 83% 29.50 in 10.0 mi Calm Calm - N/A   Overcast
6:53 PM 63.0 °F 59.0 °F 87% 29.50 in 10.0 mi South 3.5 mph - N/A   Overcast
7:35 PM 62.6 °F 59.0 °F 88% 29.50 in 10.0 mi SE 3.5 mph - N/A   Overcast
8:53 PM 62.1 °F 59.0 °F 90% 29.49 in 10.0 mi Calm Calm - N/A   Overcast
9:53 PM 61.0 °F 57.9 °F 90% 29.50 in 10.0 mi SW 6.9 mph - 0.00 in   Overcast
10:44 PM 60.8 °F 57.2 °F 88% 29.50 in 8.0 mi SW 4.6 mph - N/A   Overcast
10:53 PM 61.0 °F 57.9 °F 90% 29.49 in 8.0 mi WSW 5.8 mph - N/A   Overcast
11:07 PM 60.8 °F 57.2 °F 88% 29.49 in 8.0 mi SW 6.9 mph - N/A   Overcast
11:35 PM 60.8 °F 57.2 °F 88% 29.49 in 8.0 mi WSW 6.9 mph - N/A   Overcast
11:45 PM 60.8 °F 57.2 °F 88% 29.49 in 8.0 mi WSW 6.9 mph - N/A   Overcast
11:53 PM 60.1 °F 57.0 °F 90% 29.48 in 8.0 mi WSW 6.9 mph - N/A   Overcast